Theta_e
347 347 347 347 347 345 341 338 333 330 329 329 330 328 328 327 327 327 327 327 327 326 326 326 326 326 325 325 325 325 326 328 330 333 336 337 337 337 338 339 339 339 338 338 337 338 339 339 339 340 342 345 346 347 347 347 346 345 344 344 343 343 343 343 340 334 334 339 337 333 333 333 333 334 334 332 331 330 330 331 332 332 334 335 337
347 348 348 347 347 348 346 343 339 335 331 329 330 330 329 328 327 327 327 327 326 327 326 326 326 326 326 326 325 325 325 325 326 328 331 334 335 336 338 338 338 338 339 338 336 336 337 338 338 338 339 340 342 344 346 347 346 345 344 344 343 344 343 343 343 339 335 338 339 337 336 335 333 332 332 330 329 329 329 330 332 332 333 336 338
348 348 348 348 348 348 348 346 344 340 336 331 329 329 330 329 329 329 328 327 327 326 326 326 326 326 326 326 326 325 326 325 325 325 326 328 330 332 334 336 337 338 337 337 337 337 337 336 337 337 338 338 339 340 343 344 345 345 344 343 342 342 342 341 342 341 337 335 336 336 335 333 332 330 330 329 328 328 328 329 330 331 333 336 339
348 348 348 348 349 349 350 349 347 345 341 335 331 328 328 328 331 332 330 328 328 327 326 325 326 326 325 326 326 325 325 325 325 325 325 325 327 328 330 331 334 336 336 336 336 337 337 336 335 336 337 338 338 338 339 340 341 341 341 341 340 339 339 339 339 341 339 336 333 334 334 332 330 329 329 328 328 329 328 328 330 331 332 334 338
348 349 348 349 350 350 350 350 349 348 345 340 335 330 327 327 330 333 332 330 329 327 326 326 325 325 325 324 324 324 324 324 324 325 324 325 326 326 328 328 330 332 334 335 335 336 337 336 335 335 336 337 336 337 337 337 338 338 339 339 338 338 337 338 338 340 340 337 334 334 333 331 329 328 328 328 328 328 327 328 330 331 331 333 335
349 349 349 350 350 350 351 351 350 350 349 346 340 334 330 328 328 330 331 331 330 328 327 326 325 325 324 324 324 324 324 324 324 324 324 324 324 326 328 329 329 330 331 333 334 334 336 336 336 336 336 336 336 337 336 337 337 338 338 337 337 336 337 337 339 340 340 338 336 335 333 331 329 328 327 328 327 327 327 327 329 331 332 333 334
350 350 350 351 350 351 351 351 351 352 351 350 346 342 337 333 330 329 329 329 329 328 327 327 326 326 325 325 325 325 325 325 325 325 324 324 324 324 326 328 330 330 330 331 332 333 333 334 335 335 335 335 335 336 336 336 336 336 336 336 336 336 336 337 338 339 339 338 337 335 333 330 328 327 326 327 328 330 331 329 328 330 333 333 334
351 351 351 351 351 352 352 352 353 353 352 351 350 347 344 340 337 334 332 331 330 330 329 329 328 328 328 328 327 327 327 327 328 328 327 325 324 324 325 326 328 329 330 331 331 332 332 333 334 333 334 333 334 334 335 335 335 335 334 335 334 335 336 335 335 336 337 337 336 334 332 329 328 326 326 328 328 332 336 334 330 331 333 334 336
352 352 352 352 352 353 353 353 353 353 353 352 352 352 349 347 344 342 339 336 335 335 334 334 333 333 332 332 332 331 331 330 329 330 329 327 326 324 324 325 326 327 329 330 331 332 332 333 333 332 332 332 332 333 333 334 334 333 332 332 333 334 335 334 334 333 333 334 333 331 329 328 327 326 326 329 332 334 338 339 335 332 333 334 337
353 353 353 353 353 352 353 353 353 353 353 353 353 353 353 351 350 348 345 342 341 339 339 338 337 337 336 336 335 334 334 333 333 332 331 330 327 326 325 325 326 327 328 329 329 330 331 332 332 332 332 331 331 331 332 331 332 331 330 329 330 331 333 333 333 333 334 335 333 332 331 328 326 328 328 331 335 338 340 340 338 334 333 333 335
354 354 353 354 353 354 353 354 354 354 354 354 354 354 353 353 353 352 350 348 346 344 342 341 340 340 339 338 338 337 337 335 335 333 332 331 329 328 327 326 326 327 328 329 329 329 329 330 330 331 331 331 330 330 330 329 329 329 328 328 329 330 330 332 334 337 341 342 339 338 335 329 325 330 332 334 339 341 341 340 339 337 336 335 336
354 354 354 354 354 355 355 354 354 355 354 354 354 354 354 354 354 354 353 352 351 349 347 346 344 342 341 340 340 339 338 337 336 335 334 332 331 329 328 328 328 329 330 331 330 329 329 329 329 330 331 331 331 331 329 329 328 328 328 328 329 329 331 335 340 343 345 346 344 341 338 332 329 331 335 339 343 345 343 341 340 340 339 338 339
354 355 355 355 355 355 355 355 355 355 355 355 354 354 354 355 355 355 354 354 354 353 352 350 348 346 344 342 341 340 340 338 337 336 334 332 331 331 331 331 331 331 332 333 332 331 330 330 330 330 331 330 330 331 330 328 327 327 328 328 329 330 333 338 342 345 346 348 346 341 335 334 333 333 338 343 346 348 347 343 342 341 340 339 342
355 356 355 355 356 356 355 355 355 355 355 355 355 355 355 356 356 355 355 355 356 356 355 353 351 349 345 343 342 342 340 339 337 336 333 332 332 332 334 334 334 334 334 335 334 333 332 331 331 331 331 331 331 331 331 330 329 329 329 329 328 329 331 335 338 343 346 348 347 340 334 336 338 338 342 347 348 349 349 345 342 342 340 339 342
356 356 356 356 356 356 356 356 356 356 356 356 356 356 356 356 357 357 357 357 357 357 356 354 352 350 347 345 344 342 340 339 338 337 334 333 333 334 335 336 337 337 337 337 336 334 332 332 332 331 331 331 331 330 331 331 331 331 331 331 331 331 331 332 333 337 342 346 347 343 339 341 343 343 345 347 348 349 348 346 344 342 341 340 342
356 356 357 358 357 357 357 356 356 357 356 357 357 356 357 357 357 357 357 357 358 358 358 356 354 351 348 347 346 343 340 339 338 337 336 335 335 335 336 337 338 339 339 340 338 336 334 333 333 332 331 330 331 330 331 332 332 333 333 332 332 333 331 330 331 334 335 337 340 341 342 343 344 343 343 343 343 345 346 346 344 342 343 344 343
356 355 356 358 358 358 358 358 357 358 357 358 358 358 358 358 358 358 357 358 359 359 359 359 356 353 350 349 347 343 340 339 339 338 337 337 338 339 339 339 339 340 341 342 342 340 338 336 334 333 331 330 330 330 331 333 333 333 333 333 333 333 330 329 330 332 332 333 334 337 337 339 339 339 338 338 340 344 346 346 343 342 345 347 345
354 355 355 357 358 358 359 358 359 358 359 359 359 358 359 359 359 359 358 358 359 360 359 360 359 357 354 350 347 343 341 338 339 338 338 338 339 340 341 341 342 342 342 343 344 344 342 339 337 335 333 330 329 329 330 332 334 333 333 333 334 333 329 327 328 331 333 334 335 335 335 336 337 337 338 339 342 345 346 344 343 344 345 346 346
355 355 355 355 356 357 358 358 358 359 359 359 359 359 359 359 359 359 359 359 360 360 360 360 360 360 358 354 350 346 342 339 338 338 337 339 341 342 344 345 344 344 344 345 346 346 345 342 339 336 333 329 328 328 329 332 333 333 333 335 336 333 329 328 331 333 336 338 339 340 341 340 341 341 341 342 344 346 346 345 344 345 345 346 348
357 356 356 355 356 356 356 357 357 357 358 358 358 358 358 358 358 359 359 360 360 360 360 360 360 361 360 358 355 350 345 341 339 338 338 338 341 343 346 346 345 345 345 346 347 348 347 345 341 336 333 330 328 328 328 330 331 331 334 337 336 331 330 333 336 339 341 343 343 344 344 345 344 344 343 344 345 347 347 346 345 346 346 347 350
355 356 356 356 356 356 356 356 356 356 357 357 357 357 358 357 358 358 359 360 360 360 360 360 361 361 360 360 358 354 349 344 341 339 337 338 340 343 347 348 346 346 346 346 347 347 347 345 342 337 336 334 331 330 329 330 332 332 335 337 336 334 336 339 341 343 346 346 347 347 346 345 346 345 344 344 346 347 347 347 347 348 349 349 351
352 353 355 355 357 357 357 356 356 356 356 357 357 357 358 358 358 359 359 360 360 359 359 359 360 361 361 360 359 358 354 350 344 341 340 339 340 342 345 346 347 347 347 347 347 346 346 344 341 338 338 336 335 335 335 336 338 338 338 339 340 341 343 344 345 346 348 348 348 348 348 347 346 345 345 345 346 347 349 350 351 351 352 351 351
349 350 352 353 355 357 358 358 357 356 356 356 356 357 357 358 358 358 358 359 359 359 359 360 360 361 361 361 360 359 357 354 350 347 343 341 341 342 344 345 347 348 349 348 346 346 345 344 341 340 340 339 339 340 340 342 345 345 345 345 346 348 348 349 349 349 349 349 349 348 347 346 345 345 345 347 349 350 352 353 353 353 353 352 352
347 349 351 352 353 354 355 358 359 358 358 357 356 356 356 357 357 356 357 357 359 359 360 360 361 361 361 361 361 360 358 357 354 351 348 345 344 342 343 344 347 349 350 349 348 347 346 345 343 341 342 343 344 345 347 348 349 349 350 350 351 352 352 352 351 351 351 351 349 347 346 345 346 347 348 350 352 354 354 354 354 354 353 352 352
345 349 351 352 353 353 354 354 356 358 359 358 358 357 356 355 355 356 356 357 359 360 360 360 361 361 361 361 361 361 359 358 356 354 352 350 347 345 344 344 346 349 351 350 349 348 347 345 345 345 345 346 347 349 350 351 351 351 351 352 353 353 353 353 353 353 352 351 349 348 346 346 348 351 353 355 355 356 356 355 355 355 354 353 352
341 346 350 352 353 354 355 355 354 356 358 358 358 358 357 356 355 356 357 358 358 359 359 360 360 360 360 362 361 361 360 359 358 356 354 353 351 349 347 347 348 350 351 351 350 349 349 349 349 349 349 350 350 351 352 351 351 351 352 353 354 354 354 354 355 354 353 352 350 349 348 350 353 356 357 358 357 357 357 357 356 356 355 353 351
336 341 346 350 353 355 357 357 356 356 356 357 358 359 358 357 356 356 357 357 357 358 359 360 360 360 360 361 361 361 360 359 358 358 356 355 353 350 350 350 350 352 353 352 351 351 351 352 352 352 351 351 351 352 351 351 351 352 353 353 354 355 355 355 356 356 355 354 352 352 353 355 358 359 359 359 359 359 358 358 358 357 355 352 350
333 337 341 345 349 354 357 359 358 357 356 356 358 358 358 357 356 356 356 356 355 357 358 359 359 359 360 360 361 362 361 360 360 359 357 357 355 353 352 351 351 351 351 350 351 351 352 352 353 353 352 352 352 353 353 352 352 353 354 354 355 356 356 356 356 356 356 355 355 356 357 358 359 360 359 359 360 360 359 358 358 357 355 351 350
334 335 338 341 345 351 355 359 360 359 358 357 356 358 358 357 356 355 354 353 353 353 354 356 355 356 357 359 361 361 361 361 360 360 359 359 357 355 353 351 350 350 349 349 350 352 353 354 354 353 353 352 353 353 353 353 354 355 355 356 356 357 357 357 357 358 357 356 357 357 357 358 358 358 359 359 359 359 359 357 356 356 354 352 350
336 337 338 340 343 348 353 357 360 361 361 358 357 357 357 358 356 355 354 354 353 352 352 352 354 355 357 358 359 361 361 361 360 360 360 359 358 357 355 354 352 351 350 351 353 353 353 353 353 352 353 353 354 354 354 354 356 356 357 357 357 358 358 357 358 358 358 358 358 357 357 357 357 357 357 358 359 359 357 356 354 354 352 351 350
339 340 341 342 344 347 352 355 359 362 363 362 360 358 358 358 357 357 357 356 355 355 354 355 356 357 359 360 360 360 361 361 361 360 360 360 359 358 357 356 354 353 353 354 355 354 354 352 352 352 353 353 353 354 355 356 357 357 358 358 358 359 358 359 359 359 359 359 358 358 358 357 357 357 357 358 359 358 357 355 354 353 352 352 352
340 341 341 342 343 346 350 354 357 361 363 364 362 360 358 358 358 358 358 357 356 355 356 357 358 360 360 360 361 361 362 362 361 361 360 360 360 359 357 357 356 355 355 356 356 356 356 355 354 354 354 354 354 355 356 357 357 358 358 358 360 360 360 360 360 359 359 359 359 359 359 358 358 358 358 358 358 358 356 356 355 354 353 353 353
340 340 340 342 343 344 348 352 355 358 362 364 363 360 359 359 359 358 358 358 356 356 354 354 357 358 359 360 361 361 362 362 361 361 361 360 360 360 358 357 356 355 357 357 357 357 358 356 356 356 355 356 356 356 357 358 358 358 359 359 360 361 361 361 361 361 361 361 360 360 359 359 359 358 358 358 358 357 356 356 355 354 355 354 354
341 340 340 342 343 344 346 349 353 356 359 363 364 362 360 359 359 359 359 359 359 359 357 355 355 358 360 361 361 362 363 363 362 362 362 361 362 361 359 358 356 356 356 357 357 357 357 357 357 358 358 357 357 358 359 358 357 357 356 354 354 357 361 362 362 361 361 361 361 360 359 359 359 359 358 358 357 357 357 356 356 355 355 355 355
341 341 342 343 344 344 346 348 351 355 357 360 363 363 362 362 361 361 360 359 359 359 358 357 357 358 359 361 362 363 364 363 363 363 363 363 363 362 360 358 357 356 356 356 356 356 356 356 356 358 357 357 358 359 359 358 356 356 356 353 352 356 360 361 360 360 360 360 360 359 359 359 359 359 358 358 358 357 357 357 356 356 355 355 356
341 342 342 343 344 345 346 348 351 354 356 358 360 362 363 363 362 362 362 361 361 360 360 359 360 360 359 361 362 363 364 364 364 364 364 364 364 363 362 361 360 359 359 358 358 357 356 356 356 356 356 356 358 359 359 358 356 356 358 358 358 359 360 360 359 358 358 359 359 359 359 358 359 359 358 358 358 358 358 357 356 356 355 355 355
340 342 343 344 344 346 346 348 350 353 355 356 358 361 363 364 363 363 363 363 363 363 362 363 363 363 362 361 362 362 363 364 366 366 366 365 365 365 364 364 363 362 362 361 360 359 358 357 356 356 355 357 357 358 358 359 359 358 358 359 359 359 358 358 358 358 358 358 359 359 359 358 359 359 359 359 359 358 358 357 356 355 354 354 353
339 341 342 344 345 346 347 347 349 351 354 355 356 358 361 363 364 364 364 364 365 365 365 363 362 362 362 363 363 362 362 363 365 366 366 366 366 365 365 365 364 364 362 362 361 360 359 359 358 357 357 358 358 358 359 360 360 360 359 358 357 357 357 356 357 357 358 358 358 358 358 359 359 359 358 358 358 358 357 356 356 354 354 352 351
338 340 341 343 345 346 347 348 349 351 352 354 354 355 358 361 363 363 364 364 365 365 366 362 356 353 357 361 362 363 363 363 364 365 366 366 366 365 365 365 364 363 363 362 361 361 360 360 359 359 359 359 360 359 359 359 360 359 359 358 357 356 356 355 356 357 358 358 359 358 358 358 358 358 358 357 358 356 355 355 354 354 353 352 350
337 340 341 342 344 345 347 348 349 350 351 352 353 353 355 358 360 362 363 364 365 364 363 361 355 351 354 359 362 364 364 364 364 366 366 366 366 365 365 365 364 363 362 362 361 361 361 361 361 361 361 361 361 360 359 359 359 359 358 356 355 353 353 354 356 357 358 359 359 358 357 357 357 358 358 356 355 354 354 353 352 351 350 349 345
334 337 339 341 343 345 346 348 348 349 350 351 352 352 353 355 357 359 360 362 363 363 361 361 359 356 356 359 362 364 364 364 365 365 366 366 366 365 364 364 363 362 363 362 362 362 363 363 364 364 363 362 362 361 361 360 360 359 357 355 351 349 349 353 356 357 357 357 357 357 357 357 357 358 356 355 353 352 351 350 348 346 343 340 337
328 331 335 339 342 344 345 346 347 349 350 350 351 352 353 354 355 356 357 359 362 363 363 362 361 359 358 361 363 364 364 363 364 364 364 365 365 364 363 363 363 363 362 362 362 363 363 364 364 365 363 361 360 361 361 361 361 360 358 354 351 349 350 352 355 355 355 355 356 358 357 356 355 354 353 352 351 350 348 346 343 340 337 333 332
327 326 330 336 339 341 342 344 346 347 349 350 351 351 352 353 354 354 355 356 357 358 360 361 360 359 360 362 363 362 361 361 362 363 363 364 364 363 363 363 362 363 363 362 362 363 363 362 363 363 362 359 359 359 360 359 358 357 356 356 354 354 353 353 354 354 355 356 357 357 355 353 351 350 349 349 347 346 344 342 340 337 334 332 331
328 328 331 334 336 338 339 340 342 344 345 348 349 349 349 351 352 352 353 354 354 354 355 355 356 358 359 360 360 359 359 360 361 362 362 363 362 362 362 363 363 363 363 362 362 362 362 361 362 362 361 360 360 360 359 356 353 352 352 353 353 354 354 355 355 355 355 355 354 352 351 350 349 348 347 346 345 343 342 340 338 336 333 332 332
328 330 332 332 335 337 337 337 338 338 340 343 345 346 346 347 349 349 350 351 352 352 350 348 348 350 352 354 356 357 358 359 360 361 362 361 361 361 362 361 360 360 360 360 360 360 360 361 360 360 360 358 358 357 356 354 352 351 351 351 351 351 351 352 352 352 352 351 350 348 348 347 346 345 345 343 341 340 338 337 336 333 332 331 331
326 329 331 333 334 336 336 336 335 335 336 338 339 340 340 341 342 343 344 343 343 345 345 344 345 348 350 351 352 352 353 354 357 358 358 357 358 359 358 357 355 355 356 356 355 354 354 354 354 354 354 354 353 352 352 351 350 349 349 349 349 349 347 347 347 347 346 346 345 344 344 343 341 340 339 338 337 335 333 332 331 330 330 330 330
324 328 331 333 333 334 335 335 334 333 334 335 336 336 337 335 335 336 336 335 334 333 334 336 339 344 348 349 349 348 349 349 350 351 351 351 351 352 352 352 351 351 351 351 351 350 348 347 347 348 348 348 348 347 347 346 345 345 345 345 345 344 342 342 342 342 341 340 339 338 338 336 335 334 333 332 330 329 328 328 329 329 329 328 327
325 328 331 332 332 333 333 333 332 332 333 333 333 334 334 333 331 330 328 328 326 325 325 327 329 334 340 345 345 344 344 344 341 342 344 345 345 345 345 346 347 347 346 346 347 345 343 342 341 342 342 342 342 342 343 342 342 341 341 341 340 339 338 338 338 337 336 336 335 334 333 332 331 330 329 328 328 327 328 328 328 329 329 327 326
324 326 329 330 332 333 332 331 330 330 331 330 329 329 328 328 328 325 324 324 323 320 319 319 316 316 323 333 335 336 338 337 334 335 339 340 339 339 340 340 341 341 342 342 341 339 338 337 337 337 338 339 339 339 339 339 338 338 337 337 336 335 334 334 333 333 332 332 331 331 330 329 329 329 328 328 328 328 328 327 327 327 327 327 326
324 325 328 330 332 332 330 329 328 327 327 328 329 328 327 326 326 323 322 322 320 318 319 318 312 309 316 326 329 329 333 335 333 331 332 331 330 331 334 336 337 338 338 338 337 335 335 335 335 335 335 335 335 335 335 335 335 335 334 333 332 331 330 330 329 329 329 328 328 328 328 327 327 327 327 327 326 326 326 326 326 326 325 325 325
324 325 327 329 330 329 329 328 326 325 324 325 327 328 328 327 326 324 322 321 319 319 320 317 312 313 323 329 328 328 331 333 331 328 325 323 324 328 332 334 335 335 335 335 333 332 332 332 332 332 332 332 332 332 332 331 331 331 330 329 328 327 327 327 326 326 326 326 326 326 326 325 325 326 325 325 325 325 324 324 323 323 323 323 323
Wind_Speed
47 46 44 41 39 39 40 41 42 43 44 43 41 40 38 36 34 31 30 29 28 27 26 24 23 22 21 20 19 18 18 18 18 18 19 19 19 19 19 19 19 18 17 16 16 16 16 16 15 14 14 15 15 16 16 17 17 17 17 17 16 14 13 12 13 12 8 6 7 7 9 11 11 11 12 12 12 13 14 14 14 15 16 15 14
49 47 45 43 41 39 39 40 41 43 44 45 44 43 41 39 37 35 34 32 31 30 29 27 26 24 24 23 22 21 21 20 19 19 19 19 19 19 19 19 20 20 20 19 17 17 17 17 17 15 15 15 15 15 16 16 17 18 17 17 16 14 13 13 14 15 12 7 7 8 8 10 10 10 10 11 11 11 12 12 13 14 14 14 14
50 48 47 45 42 39 39 39 40 42 44 46 46 46 45 43 41 40 37 35 34 33 31 30 29 28 27 26 26 25 24 23 22 22 22 21 21 20 20 20 20 20 21 20 19 19 19 18 17 16 16 17 16 15 15 16 16 17 16 16 15 14 14 14 15 16 16 12 9 8 8 9 10 9 9 10 10 11 12 13 14 15 14 14 14
50 49 48 46 43 41 40 39 40 41 43 45 47 47 47 46 45 44 41 39 37 36 34 33 32 31 31 30 29 28 27 26 25 25 24 24 23 22 22 22 21 21 21 21 20 20 20 20 18 17 17 18 17 16 16 16 16 16 16 15 15 15 14 15 16 16 17 16 13 10 10 10 9 8 9 10 10 12 13 15 16 16 15 15 15
50 50 49 47 44 42 40 40 40 41 42 44 46 47 48 48 48 47 45 43 41 39 38 36 36 35 34 33 32 31 29 28 28 27 26 26 25 25 24 24 24 23 22 22 21 21 21 21 20 19 19 19 19 18 17 16 16 16 16 15 15 15 15 16 17 17 18 19 17 14 13 12 10 8 9 11 13 14 15 15 17 17 17 16 15
50 50 49 48 46 44 42 40 40 40 40 42 44 45 47 48 49 49 48 46 44 42 41 40 39 38 36 35 34 33 31 30 30 29 28 28 27 26 25 25 25 25 24 24 23 22 22 22 21 21 20 20 19 18 17 16 16 17 17 16 15 16 16 16 16 17 18 19 19 17 15 13 12 10 10 13 16 17 17 18 18 18 18 18 16
50 50 49 49 47 46 44 42 40 39 38 39 41 43 45 47 48 49 49 48 47 46 44 43 41 40 39 37 36 35 34 32 32 31 30 30 29 28 27 26 25 26 26 25 25 24 23 23 22 22 22 21 20 19 18 17 17 18 18 17 17 17 17 17 17 17 18 18 19 18 16 15 14 12 12 15 17 18 19 21 21 20 20 20 18
50 50 50 49 49 47 44 42 40 39 38 37 38 40 42 44 46 47 48 49 48 47 46 44 42 41 40 39 38 37 36 36 35 34 32 31 31 30 29 27 26 25 26 26 26 26 25 24 24 23 23 22 21 21 20 20 20 20 19 19 19 19 19 19 18 18 18 19 19 18 17 16 15 14 15 17 18 19 20 21 23 22 22 21 19
49 50 50 50 49 47 45 43 42 40 39 38 38 38 39 41 43 45 46 48 48 47 46 44 43 42 40 39 38 38 38 38 37 35 34 33 32 31 30 29 27 26 26 26 27 27 26 25 24 24 23 23 22 22 22 22 22 23 22 21 22 22 21 20 20 19 19 19 19 18 18 18 16 16 17 18 18 20 21 22 22 23 22 21 19
48 49 50 50 49 47 46 45 43 42 41 40 39 39 38 38 40 42 43 45 46 46 46 45 44 43 41 39 38 38 38 38 37 36 35 34 33 32 31 30 28 27 26 26 27 27 27 26 25 24 24 23 23 23 23 23 24 24 24 23 23 23 23 22 21 20 19 19 19 18 19 19 17 17 18 18 18 20 22 22 22 22 22 21 17
47 49 50 50 49 48 47 46 45 43 42 41 40 39 39 38 39 39 40 42 43 44 45 45 45 43 42 40 39 38 37 37 36 35 35 34 33 32 32 31 29 28 27 27 26 26 27 27 26 25 25 24 23 23 23 23 24 24 24 24 24 24 23 22 20 18 18 18 18 18 20 20 19 18 18 18 19 21 22 22 22 22 22 21 18
47 47 49 48 48 48 47 47 46 44 43 42 40 39 39 39 39 39 39 39 41 42 43 45 44 43 42 41 39 38 36 35 35 35 34 34 33 33 32 31 31 29 28 27 27 26 26 26 26 25 25 25 24 24 23 23 23 23 23 23 23 23 22 20 19 18 18 19 20 20 21 21 21 19 18 19 20 22 23 22 22 22 21 21 19
45 46 46 47 47 47 47 47 46 45 44 42 41 40 40 40 39 39 38 38 39 40 42 43 43 43 42 41 39 37 36 34 34 34 34 33 33 33 33 32 32 31 29 28 28 27 26 26 26 25 25 25 24 24 23 23 22 22 22 22 22 22 22 20 20 20 20 22 23 23 22 22 22 20 18 20 22 23 24 24 22 22 22 20 18
40 43 44 45 46 46 47 47 46 46 44 43 42 42 41 40 39 38 37 37 37 39 40 41 42 42 42 41 39 37 36 34 33 33 33 33 33 33 33 33 32 31 30 30 29 28 27 27 27 26 25 24 24 24 23 23 22 22 21 21 21 22 22 23 23 22 23 24 26 26 23 22 23 22 20 22 23 24 25 25 24 23 22 20 17
37 39 42 44 45 46 47 47 47 46 45 44 43 43 42 41 40 38 37 36 35 36 37 39 41 42 41 40 39 38 36 33 32 32 32 32 32 33 33 33 33 32 31 30 30 29 28 28 28 27 26 25 24 24 23 23 23 23 22 22 22 22 23 24 24 24 24 25 26 27 26 24 25 24 24 24 24 24 25 25 24 23 22 20 18
38 39 40 42 44 46 46 46 47 46 45 45 44 43 43 42 40 39 37 36 35 34 34 35 38 40 40 40 40 39 36 33 33 32 32 31 32 33 33 33 33 33 32 31 31 30 30 30 29 28 27 26 25 24 24 24 24 25 25 24 23 23 24 23 23 24 25 25 25 26 27 26 26 26 26 25 25 24 25 25 24 22 22 22 21
35 36 38 41 43 45 46 46 47 46 46 46 46 45 44 42 41 40 39 38 36 35 33 33 34 36 39 40 40 38 36 34 33 33 32 32 33 34 34 34 33 33 32 31 31 31 31 31 30 29 29 28 26 25 24 25 26 26 26 26 25 25 25 23 22 23 23 25 26 27 27 27 27 27 27 26 24 23 24 25 24 22 22 24 23
29 32 35 39 40 42 44 45 46 46 46 46 46 45 44 43 42 41 40 40 38 36 34 32 32 33 35 37 38 37 36 34 33 33 32 32 33 33 34 34 34 33 32 31 30 31 31 31 30 30 30 28 26 25 25 26 27 27 27 27 27 28 26 23 22 21 21 23 24 25 25 25 25 25 25 23 23 23 25 25 23 22 23 25 24
18 22 27 32 36 39 42 44 45 46 46 47 46 45 44 44 43 42 41 41 39 37 36 35 34 33 33 34 36 37 36 34 33 33 32 32 33 33 33 34 34 34 33 31 31 31 31 31 30 30 30 28 27 26 26 27 28 28 28 28 30 30 27 23 23 23 22 23 23 23 23 23 23 24 24 23 23 24 25 25 24 23 25 25 24
12 16 19 24 29 34 39 42 44 46 46 46 46 45 45 44 43 42 42 41 40 39 37 37 37 36 34 34 34 36 36 35 34 33 33 32 32 33 33 35 34 33 33 32 32 32 31 30 30 29 29 29 27 27 27 28 28 28 29 30 31 29 26 25 26 26 26 26 26 25 26 25 25 26 26 26 25 25 25 25 24 23 24 24 22
13 15 17 19 22 27 33 37 41 44 45 45 44 44 44 44 43 42 42 42 42 40 39 38 38 38 36 35 35 35 35 35 34 33 33 33 32 32 34 34 33 32 33 33 33 33 32 31 30 28 27 26 26 26 27 27 27 28 29 30 29 27 26 27 27 27 28 29 29 29 29 29 29 29 29 28 27 26 26 25 23 22 22 22 21
16 17 17 18 19 22 26 30 34 37 41 43 44 45 45 44 43 42 42 43 43 42 40 39 39 39 38 37 36 36 35 35 35 34 33 33 33 33 34 34 32 32 33 34 34 35 34 32 30 28 25 24 23 24 24 24 24 25 26 26 25 24 26 27 28 29 31 32 33 34 34 33 32 32 31 30 28 26 25 24 22 21 21 20 20
21 20 19 19 20 22 23 25 27 29 32 36 40 43 45 45 44 43 43 44 44 43 41 40 39 39 39 38 38 37 36 36 36 35 35 34 33 33 33 33 32 33 34 34 34 34 34 33 31 28 26 24 24 23 23 22 23 24 24 23 23 24 26 28 30 32 33 34 35 36 35 34 33 32 30 29 26 24 23 21 20 21 21 21 20
22 22 21 20 21 22 24 25 25 26 26 27 31 37 42 44 44 43 43 44 44 44 42 41 40 40 40 39 39 39 38 37 37 36 36 35 34 34 33 33 32 33 35 35 34 34 34 33 31 29 28 27 26 25 25 25 25 25 25 24 24 25 26 28 29 30 32 33 34 34 33 31 30 30 27 24 22 21 21 21 21 22 22 22 22
23 22 22 21 21 22 24 26 27 27 25 25 27 32 36 40 41 41 42 43 44 44 43 42 41 41 40 40 40 39 38 38 37 37 37 36 36 35 34 33 33 34 35 35 34 34 33 33 32 31 30 30 30 29 29 28 27 27 26 25 25 26 27 27 27 28 30 31 32 32 31 29 27 25 22 20 20 20 21 22 22 23 23 23 24
26 23 22 23 22 22 23 25 27 28 28 27 28 30 32 35 37 38 39 41 42 43 44 43 42 41 40 40 40 40 39 38 38 38 38 38 37 36 35 34 34 34 35 35 34 34 34 34 33 33 33 33 33 33 33 31 30 29 28 27 27 27 27 26 26 27 29 30 31 31 29 27 24 22 20 20 21 21 21 22 23 23 24 24 24
29 26 24 24 24 24 24 24 26 28 29 29 29 30 31 34 35 37 39 39 41 43 44 44 43 42 41 40 40 40 40 40 39 39 39 39 38 37 37 36 35 35 36 36 36 35 35 35 35 35 35 35 35 36 35 33 32 31 30 28 28 27 27 26 26 27 27 27 28 28 26 24 23 22 21 22 22 21 22 23 24 24 24 24 23
30 29 27 25 25 24 24 24 25 27 29 31 31 32 33 35 36 38 38 37 38 41 44 44 44 42 40 40 40 40 41 42 41 40 39 39 38 38 38 37 37 36 36 36 35 35 35 36 37 37 36 36 36 35 34 33 32 31 30 29 29 28 27 27 28 27 26 25 25 25 24 24 24 24 24 24 23 22 22 24 24 24 24 23 22
31 29 28 27 26 25 24 24 25 26 28 31 33 33 34 35 37 38 37 35 34 36 39 41 42 40 38 39 39 40 41 40 38 37 37 37 37 37 38 37 36 36 34 33 33 35 36 37 38 37 36 35 34 34 33 32 32 32 31 30 30 29 29 29 29 27 25 24 24 24 25 26 27 26 27 27 25 22 22 23 24 23 23 22 22
30 29 28 27 26 25 24 23 22 24 26 28 32 34 34 34 37 38 37 36 34 33 35 38 38 38 38 38 38 38 37 35 33 34 35 35 36 37 37 36 36 35 33 32 34 36 37 36 36 36 35 34 34 33 32 32 33 33 32 31 31 30 30 29 28 26 24 25 25 25 26 27 27 27 27 27 24 21 21 22 22 21 21 22 22
28 28 27 27 25 24 23 22 21 21 22 24 27 30 32 33 37 39 39 38 37 36 37 38 40 41 41 40 39 38 37 36 36 37 35 35 36 37 37 37 36 35 34 33 35 37 37 36 36 35 34 34 34 33 32 33 34 34 33 32 31 31 30 28 26 25 25 25 25 25 25 26 26 26 26 25 22 21 21 20 20 21 21 21 22
26 27 27 27 25 23 22 21 21 21 21 21 22 25 29 32 37 40 42 41 40 38 38 39 42 43 43 43 42 41 39 39 39 38 36 35 35 37 37 37 37 36 34 34 36 37 37 37 37 36 35 35 35 33 33 35 35 34 32 32 31 29 28 26 23 23 24 25 25 25 25 25 24 24 23 22 21 21 20 20 19 20 20 21 22
25 27 27 26 25 23 20 20 20 21 21 20 20 23 28 33 36 39 41 43 43 41 39 39 40 42 42 42 41 41 40 40 40 38 36 34 34 34 36 37 37 36 35 36 37 37 37 38 39 37 36 37 35 34 35 36 37 36 34 32 29 26 24 22 21 22 23 23 23 24 24 23 23 22 21 21 21 20 21 21 20 20 22 23 25
24 25 25 24 25 23 20 19 20 20 21 22 21 22 27 32 36 38 40 43 45 45 42 40 40 42 42 42 41 40 41 42 41 39 37 34 33 33 35 37 37 37 37 37 38 37 37 38 38 37 38 37 35 35 38 39 38 36 34 33 31 26 21 19 20 21 22 22 23 24 23 22 22 21 21 21 21 21 22 22 21 22 24 25 26
22 23 23 23 24 23 21 19 19 20 21 22 23 24 27 31 35 38 40 42 44 45 45 43 42 42 42 42 41 41 41 42 41 39 37 35 33 33 35 37 39 39 39 39 39 39 38 38 37 37 37 36 35 38 39 36 32 30 31 32 29 23 19 18 20 21 21 22 23 23 22 21 21 21 21 21 22 22 23 23 22 22 21 23 26
21 20 20 21 23 23 22 21 20 19 20 21 23 24 27 31 34 36 39 41 43 44 44 43 42 42 41 42 42 42 42 41 40 38 36 35 35 35 36 37 38 39 40 40 40 40 40 39 38 38 37 35 36 38 36 32 29 29 27 26 23 19 16 18 19 20 21 22 22 22 21 21 20 20 21 21 22 23 24 25 24 22 21 23 26
19 19 19 21 22 23 23 22 21 20 21 23 23 24 27 31 34 37 39 41 43 44 43 42 43 43 42 41 42 42 42 41 40 38 37 36 36 36 36 36 36 36 38 38 38 38 38 38 38 38 38 37 36 36 34 32 31 29 25 22 19 16 15 17 18 19 21 22 21 20 20 20 20 20 20 21 22 23 23 25 26 25 24 24 23
17 18 19 22 24 24 22 21 21 21 23 24 24 25 28 31 34 37 40 42 44 44 43 41 40 40 41 41 42 42 42 41 40 40 39 38 37 36 36 35 35 35 35 35 35 35 34 35 35 37 38 38 37 36 36 34 31 27 22 19 16 15 16 18 19 19 21 22 21 20 19 19 19 19 19 20 22 22 23 25 26 24 22 21 21
15 15 18 21 24 24 22 20 19 21 23 25 26 28 30 32 34 36 40 43 45 45 43 41 38 38 39 40 41 43 43 41 40 40 40 38 36 35 35 35 35 35 35 35 35 34 34 34 34 35 37 37 37 37 36 34 30 25 20 15 13 14 17 19 19 19 20 20 19 18 18 18 19 19 20 21 23 23 23 23 22 20 20 21 23
14 12 14 18 22 22 20 18 18 19 21 23 25 27 30 33 35 36 38 40 42 43 42 41 39 37 37 39 42 44 44 41 39 40 40 39 37 36 36 38 37 37 36 35 34 34 34 34 34 34 35 35 34 33 32 30 27 22 17 13 13 16 19 20 20 19 18 16 16 17 18 19 20 21 21 20 19 18 17 17 18 19 20 21 20
14 14 13 15 19 21 19 17 17 18 18 19 20 23 27 31 34 36 36 36 37 39 40 40 39 37 37 39 42 45 43 40 39 39 41 41 40 37 36 38 38 37 35 34 32 33 33 32 33 35 34 31 26 22 20 20 19 16 13 11 13 16 19 20 19 18 16 15 15 16 18 19 20 19 17 15 14 14 14 16 17 18 17 16 16
12 14 14 13 14 18 19 18 17 18 19 19 20 21 25 27 29 31 34 36 36 38 39 39 39 38 38 41 43 43 41 39 39 39 40 42 41 38 36 38 39 36 33 31 29 30 30 31 34 36 33 25 19 17 17 17 15 13 13 14 16 18 20 20 18 16 15 15 16 17 16 15 14 13 13 13 14 15 15 16 17 17 16 16 15
9 10 12 13 12 13 16 18 18 18 19 21 21 22 24 26 27 28 31 34 36 38 40 40 38 38 40 43 43 41 40 39 39 38 39 41 40 38 37 37 36 33 30 28 27 27 27 28 29 29 26 20 17 16 15 14 13 12 14 15 17 20 22 22 21 19 16 16 18 18 16 14 12 12 13 14 14 15 15 16 18 19 19 19 18
8 8 9 11 12 12 12 14 16 17 18 20 21 21 22 25 27 27 28 32 36 39 39 38 37 38 42 44 42 40 39 39 38 38 39 40 38 37 36 35 33 31 29 27 26 24 23 23 23 23 22 21 19 16 13 11 10 10 11 13 14 15 16 18 20 19 17 17 18 17 16 15 14 14 15 15 16 16 16 18 19 20 20 20 20
8 8 8 8 9 11 11 10 11 13 15 17 19 18 18 20 22 23 24 29 34 37 35 33 33 36 39 40 39 39 40 40 39 39 39 39 37 35 34 33 31 28 26 24 22 20 21 23 24 23 21 19 16 14 12 11 10 9 9 10 11 11 10 10 12 13 13 15 15 15 15 15 15 15 16 16 16 17 17 18 19 20 19 19 18
6 7 8 8 7 8 10 10 8 8 9 12 14 14 13 14 16 18 20 23 27 30 31 31 32 34 36 37 37 36 37 37 38 38 37 36 35 34 31 28 24 21 18 16 14 13 15 17 18 17 15 14 13 12 11 10 9 7 7 8 9 9 8 7 7 8 10 11 12 12 13 13 13 13 14 15 15 16 16 16 17 17 16 15 15
4 5 7 7 6 6 7 7 6 5 4 5 7 8 8 8 10 13 17 20 21 23 25 27 29 33 36 37 36 36 36 36 36 36 35 33 32 31 28 24 21 18 16 15 12 10 9 10 11 11 11 11 11 10 9 9 9 8 8 8 8 8 6 5 6 6 7 8 8 8 9 9 10 11 11 12 13 13 13 12 13 13 12 12 12
3 4 5 6 6 5 4 5 4 2 1 1 2 3 3 4 5 6 8 12 16 19 22 25 27 29 34 38 38 38 38 37 36 35 33 31 30 29 27 24 21 19 18 16 14 10 9 9 10 10 11 11 10 10 9 8 8 8 7 8 8 7 6 6 5 5 6 7 7 8 8 8 9 9 10 11 11 11 11 10 10 11 11 12 12
1 2 3 5 5 3 3 5 5 5 5 5 6 7 7 6 5 4 5 8 10 13 17 21 23 25 30 37 38 37 37 36 35 34 32 30 28 28 26 24 23 21 19 18 16 13 12 11 11 11 11 10 9 9 9 8 7 6 5 5 6 6 5 4 4 4 6 6 7 7 7 7 8 8 8 8 9 9 9 10 10 10 11 12 13
3 1 1 2 2 2 2 4 6 7 9 9 9 10 11 11 11 11 11 12 13 13 14 16 19 24 29 32 34 34 34 33 33 34 34 32 31 29 27 26 24 22 21 19 17 15 13 12 11 10 10 10 9 8 8 7 7 6 6 6 6 6 6 5 5 5 5 5 4 4 4 4 5 6 6 7 8 8 9 9 10 11 12 12 13
4 3 3 2 1 0 2 4 7 9 10 11 12 13 13 14 15 15 15 15 17 20 22 22 25 29 30 30 30 31 32 31 30 31 32 32 31 29 27 26 25 23 22 20 18 16 15 13 12 11 10 9 9 9 9 9 9 9 8 8 8 7 6 6 5 5 5 4 4 3 4 4 5 6 7 8 9 10 11 11 12 12 13 14 14
Wind_Direction
224 224 225 226 227 228 229 230 229 228 226 226 227 229 230 231 231 231 229 229 230 232 234 235 235 236 238 239 240 240 240 240 239 237 238 240 244 247 251 253 256 258 256 252 250 250 252 252 251 250 247 246 247 248 252 257 261 264 269 276 282 286 288 290 293 292 289 281 278 277 280 284 288 291 293 296 298 299 302 307 313 318 321 325 328
224 225 226 227 229 230 230 230 231 231 230 228 228 229 231 233 234 234 233 233 233 235 238 239 239 241 243 244 246 246 246 247 246 245 243 242 242 244 247 250 253 257 258 257 254 252 253 252 252 252 251 250 249 248 249 253 258 262 267 273 277 276 278 283 286 288 287 276 267 273 279 286 288 290 294 299 302 302 307 317 324 327 327 326 326
225 226 227 228 230 231 232 231 231 232 233 231 230 230 231 234 235 236 237 237 237 238 240 242 243 245 246 248 249 249 249 250 251 251 251 249 248 247 247 249 252 254 257 259 258 256 255 254 252 252 253 254 253 251 251 251 253 257 261 267 272 273 276 280 281 285 291 287 276 278 285 288 287 291 300 306 311 313 319 328 332 332 333 329 328
224 225 227 229 231 232 233 233 233 232 233 234 233 232 232 234 235 237 239 240 240 241 243 245 246 248 249 251 252 252 252 252 253 254 254 255 254 253 251 251 251 254 257 259 259 259 258 258 258 257 256 257 258 257 256 255 254 255 258 263 270 275 278 279 279 284 290 292 292 295 300 298 292 296 306 311 316 320 325 329 330 333 336 333 331
224 225 227 229 230 232 233 234 235 234 234 234 234 235 234 234 235 237 239 240 241 243 244 246 248 249 251 252 253 254 255 254 255 255 255 257 257 256 255 254 253 254 256 258 260 260 260 261 262 263 263 261 261 261 261 260 257 256 258 262 269 276 278 278 279 281 286 292 297 300 303 303 299 302 314 317 319 322 325 326 327 332 335 333 333
223 225 227 228 230 232 233 234 235 236 236 235 235 235 236 236 236 237 238 240 241 243 244 246 248 250 252 253 254 255 256 256 257 257 257 257 258 259 258 257 256 255 255 256 259 260 261 261 262 264 265 263 262 262 261 260 257 256 257 261 268 275 277 276 277 278 282 288 294 297 301 304 301 304 316 320 321 325 326 322 325 333 334 333 336
223 224 227 229 231 232 233 235 236 237 238 238 236 236 237 238 239 239 240 240 241 243 244 246 248 250 251 253 254 255 256 257 258 258 258 257 258 259 260 260 259 258 257 257 257 259 260 260 261 262 263 263 262 262 262 261 260 260 260 263 269 272 273 274 274 276 279 283 287 292 297 300 301 305 315 320 322 327 329 322 322 331 334 333 339
222 224 227 229 231 234 235 236 237 238 239 240 239 238 238 239 240 241 242 242 243 244 245 247 248 249 251 252 253 255 256 257 257 257 258 258 258 259 260 262 262 261 260 259 259 259 259 258 258 259 260 261 261 262 263 264 265 264 264 266 269 270 271 272 273 275 276 279 282 288 292 294 297 304 313 320 324 329 332 326 322 326 329 331 338
222 224 226 229 232 235 236 237 238 240 240 241 241 241 240 240 241 242 243 244 245 245 246 247 248 249 250 252 253 254 256 256 256 256 256 256 257 258 260 262 263 264 263 261 260 259 258 257 257 257 257 258 259 260 261 263 265 267 267 267 268 268 269 270 273 274 275 277 279 283 286 288 293 302 310 320 327 329 332 328 322 322 324 326 334
223 224 226 230 234 235 236 237 238 239 240 242 243 243 243 243 243 244 245 246 247 247 247 248 249 250 251 252 253 254 255 256 256 255 254 255 256 257 259 261 263 265 264 264 262 259 258 258 258 258 258 258 258 258 259 260 263 265 266 267 266 266 267 269 272 273 275 277 277 281 283 283 288 300 308 319 328 329 329 326 321 319 320 323 333
225 226 228 231 234 235 236 237 238 239 241 242 244 244 245 245 245 246 246 247 248 249 249 250 250 251 252 253 254 255 255 256 256 256 254 253 254 255 257 260 262 263 264 264 263 261 260 259 259 259 259 259 259 259 259 260 260 262 263 264 265 265 265 267 267 267 270 274 276 280 282 282 286 298 308 319 326 326 325 323 319 317 317 320 327
227 229 231 232 233 235 236 237 238 240 242 243 244 245 245 245 246 246 246 248 249 249 250 251 251 251 252 253 254 256 256 257 258 258 256 254 254 255 256 259 261 262 263 263 263 263 261 260 260 259 258 259 260 261 261 259 259 260 262 263 265 263 260 259 259 261 266 273 276 277 278 281 287 297 308 317 320 320 320 319 315 313 313 313 317
228 230 232 233 234 235 236 237 239 241 243 244 245 245 245 246 246 247 248 249 249 250 251 251 251 252 252 253 254 256 257 259 259 259 258 256 255 255 256 258 260 261 262 263 263 263 262 262 261 259 258 258 260 261 262 259 258 260 262 264 264 260 255 251 252 258 264 271 274 274 275 282 288 297 308 313 313 313 313 313 311 308 307 308 308
227 231 233 234 235 236 237 238 240 242 243 245 245 245 246 246 247 248 249 249 249 251 251 251 251 252 252 253 254 256 257 258 259 259 258 257 256 256 257 258 260 261 262 262 262 262 261 261 261 259 258 257 258 260 261 261 261 263 264 266 265 262 258 254 254 257 262 269 274 276 279 285 290 296 303 305 304 304 304 305 306 304 303 302 300
228 231 233 235 236 237 238 239 240 242 244 244 245 246 246 247 248 248 249 249 250 252 252 252 251 252 252 253 254 256 256 257 258 258 258 257 257 258 258 258 259 260 261 262 262 260 259 259 260 259 257 256 255 257 259 262 265 267 267 267 266 265 264 261 261 262 263 267 272 275 279 284 287 291 295 296 295 295 296 298 300 300 299 296 294
233 233 233 235 237 237 238 240 241 242 243 243 244 245 246 247 248 249 249 250 251 253 253 253 252 252 252 253 254 255 255 255 255 256 256 257 258 258 259 258 258 259 260 261 261 259 257 257 257 257 256 255 254 254 258 262 265 267 268 268 268 268 266 264 266 267 266 267 268 271 276 280 283 286 288 290 290 291 292 292 293 297 296 292 290
234 234 234 237 239 240 240 240 242 243 243 243 244 245 246 247 249 249 249 249 249 251 252 253 253 253 252 252 253 254 254 253 253 254 255 256 257 258 258 258 259 259 259 261 261 260 259 258 257 257 255 254 253 254 257 261 264 266 268 269 270 270 268 267 268 269 269 269 271 272 276 278 281 283 285 287 288 289 288 287 291 296 292 287 287
234 236 237 237 240 242 242 242 243 243 243 244 245 246 246 247 249 249 249 249 250 251 252 253 254 254 253 252 252 253 254 253 253 253 254 255 256 258 259 259 259 259 259 260 261 261 261 260 259 257 256 253 252 253 256 260 263 265 267 270 272 271 270 270 273 273 273 274 275 276 278 279 281 281 281 281 283 283 282 284 290 292 286 282 284
239 240 242 242 242 243 243 243 244 244 244 246 246 247 248 249 250 250 250 250 251 252 252 252 252 254 254 254 253 253 254 253 252 252 252 254 255 257 258 259 259 258 257 257 259 261 262 263 262 260 258 255 254 253 256 259 262 263 265 269 270 270 271 274 277 278 279 280 280 280 280 280 280 280 279 279 280 280 280 284 287 285 280 279 281
237 238 242 243 243 244 244 244 245 245 246 248 248 249 249 250 251 251 251 251 251 251 251 251 251 252 254 255 255 254 254 253 252 251 251 252 253 255 257 258 258 257 257 256 257 259 261 262 263 262 261 260 258 257 258 260 261 263 265 267 268 270 275 279 280 282 283 284 284 283 282 282 281 282 282 282 282 281 281 283 283 279 275 274 276
250 247 245 241 242 244 244 245 247 247 248 249 249 250 251 251 251 251 251 251 250 250 250 250 250 251 253 254 255 255 255 255 253 252 251 251 251 252 254 255 256 257 257 257 257 259 260 262 262 263 264 264 262 261 262 263 264 266 267 269 272 276 280 282 282 284 284 284 284 284 284 284 284 284 284 284 284 283 282 281 280 278 274 272 273
271 267 260 251 246 246 245 244 246 248 249 249 248 249 250 250 250 251 251 250 249 249 250 249 249 251 252 253 254 256 256 256 255 253 252 251 251 251 251 253 254 256 258 258 258 258 260 261 262 263 264 265 264 264 265 267 269 270 271 274 279 282 283 284 284 284 284 284 285 285 285 284 284 284 283 283 282 282 282 282 281 282 280 276 272
280 279 275 266 257 254 252 249 247 247 248 248 249 250 250 248 249 250 250 249 247 247 248 248 248 249 251 252 254 255 256 257 256 255 253 252 252 251 252 252 253 255 257 258 258 259 261 263 264 265 266 267 266 267 269 271 273 275 276 279 282 283 283 283 282 282 282 283 283 283 282 283 282 281 281 281 283 284 284 284 283 282 280 277 271
284 282 283 278 269 262 259 256 254 251 248 246 247 249 249 248 248 249 248 246 245 245 246 247 247 247 249 252 253 254 255 257 257 257 256 255 253 252 252 252 253 254 256 257 259 261 263 264 266 268 269 270 271 272 274 275 277 277 278 280 281 281 280 278 278 279 279 279 279 279 279 279 279 280 281 283 284 284 282 280 278 277 276 275 271
292 287 288 287 281 273 266 261 258 255 250 246 246 247 247 246 246 246 245 243 243 244 245 245 246 248 250 252 253 254 254 256 258 258 257 256 256 254 253 253 253 254 255 257 259 261 264 266 269 271 272 273 274 274 274 276 277 278 278 279 278 276 274 274 274 274 274 274 275 275 276 277 278 279 281 281 279 278 277 276 275 276 276 276 272
300 296 296 293 289 284 278 269 262 257 252 248 248 249 248 245 243 242 241 241 243 244 245 244 245 247 250 252 253 253 254 256 258 259 258 257 257 256 254 254 254 254 256 258 259 261 264 266 268 270 271 272 272 273 274 276 276 275 275 273 272 270 270 272 272 272 273 273 272 272 272 274 274 274 273 273 272 273 275 276 277 277 277 276 273
302 300 301 300 295 293 289 279 270 262 255 250 248 248 247 245 242 240 239 241 243 244 243 242 243 246 249 252 252 251 253 255 257 257 257 257 256 256 255 254 254 253 254 255 256 258 261 263 265 267 268 269 270 271 272 273 272 270 269 268 268 268 270 271 271 271 272 271 269 268 268 268 269 269 270 271 273 275 276 277 277 276 275 273 271
305 302 302 301 299 297 294 288 278 268 258 251 248 247 245 243 242 241 242 244 246 245 244 243 244 248 251 252 251 251 252 254 256 256 257 258 258 257 255 254 254 253 253 253 255 257 259 260 262 264 265 266 267 268 268 267 266 265 265 265 266 268 268 269 268 268 269 269 267 267 268 268 268 269 269 270 271 275 277 277 276 274 271 269 268
307 304 302 302 302 300 297 292 285 276 264 253 247 247 247 246 246 247 248 250 251 251 250 249 250 253 255 255 253 251 252 255 259 261 261 262 262 259 258 257 256 255 255 257 257 258 259 259 260 260 260 261 262 262 262 261 261 262 263 264 265 267 267 267 268 268 269 269 269 270 272 273 273 273 273 272 271 273 277 277 274 270 266 263 263
307 305 304 305 306 304 300 296 291 283 270 256 248 247 248 249 250 250 252 254 255 255 256 256 256 256 257 257 257 257 259 264 266 265 264 264 264 262 261 260 259 258 259 259 257 257 257 258 257 256 255 255 256 257 258 259 260 261 263 264 265 266 267 268 268 269 270 271 272 274 275 275 275 273 273 274 274 274 276 276 270 263 258 258 258
304 305 306 307 308 306 300 297 295 288 276 261 251 248 248 246 245 245 246 249 251 252 254 256 256 255 256 258 259 261 264 265 262 260 261 263 263 262 262 261 260 259 258 257 255 255 255 255 254 252 251 252 254 256 257 259 261 262 263 264 265 265 266 268 269 270 271 272 274 275 274 272 271 269 267 268 269 269 269 269 265 257 252 254 255
301 304 306 308 308 303 297 293 292 290 282 268 254 250 249 245 242 242 243 244 246 248 250 250 250 250 252 254 256 258 260 259 257 257 259 260 261 261 260 260 259 258 255 253 253 253 253 254 253 252 252 253 254 256 259 261 262 263 263 264 263 264 265 267 269 271 273 273 273 272 270 269 266 263 259 256 257 259 260 260 259 254 250 252 256
297 302 305 306 305 300 293 290 288 287 285 276 261 251 249 246 243 243 244 244 243 244 246 248 249 249 250 251 253 255 256 257 257 257 258 259 260 259 258 258 257 255 252 250 250 251 252 252 252 252 253 253 255 258 261 262 263 264 264 263 262 262 263 265 266 267 268 269 268 265 263 262 259 255 250 246 247 251 254 254 255 252 248 248 252
294 300 303 302 300 296 291 288 285 283 283 280 268 253 247 245 244 244 244 244 243 242 242 244 246 247 249 249 251 253 253 253 254 255 256 258 259 258 257 255 252 251 249 249 249 250 251 252 252 252 252 253 255 258 259 262 265 267 267 267 266 264 260 259 259 258 259 260 259 256 255 254 251 247 245 245 247 251 254 255 256 254 252 253 255
292 296 299 297 294 291 287 281 278 277 277 278 272 259 247 243 244 245 246 246 246 246 247 246 245 246 248 249 250 251 250 250 251 252 253 254 254 252 251 250 249 249 249 249 249 250 251 252 252 252 251 252 254 256 258 262 264 265 267 270 269 263 256 253 253 254 254 253 252 251 250 246 243 244 247 251 254 256 258 261 262 262 263 265 265
292 292 296 295 292 288 281 272 267 266 267 269 270 264 253 246 244 245 246 246 247 248 250 250 248 247 248 249 249 249 249 248 249 250 251 251 249 247 246 246 248 250 251 251 252 253 254 254 254 254 255 254 252 253 257 259 257 257 262 265 260 253 253 257 256 255 254 251 249 248 244 240 241 245 251 256 259 262 263 265 267 270 271 269 266
295 288 291 293 291 288 281 272 263 257 255 257 261 261 256 250 247 245 244 243 243 243 244 246 246 246 247 249 249 249 248 247 246 247 247 247 245 245 244 244 246 249 251 252 253 254 255 256 255 256 256 253 251 253 255 254 252 253 254 252 248 249 259 264 261 257 253 250 247 244 240 240 245 250 256 261 265 266 269 271 273 275 273 267 258
302 290 289 291 290 289 285 277 265 255 249 249 252 255 255 252 248 245 244 243 241 239 239 241 245 248 251 252 252 251 249 247 245 244 244 242 241 242 242 243 245 248 251 253 254 255 256 257 257 256 254 251 251 252 251 250 251 249 241 237 243 254 261 260 257 255 252 249 246 244 243 247 254 258 261 265 267 268 270 272 274 276 274 265 255
313 294 285 286 287 286 284 279 271 261 253 248 246 248 252 252 249 246 244 242 240 239 240 241 244 248 250 251 252 252 250 247 246 245 242 239 238 239 240 241 244 246 248 250 252 253 254 255 255 255 253 252 252 252 252 252 250 241 232 233 246 255 258 256 252 249 249 249 249 249 252 256 261 263 263 263 266 269 270 270 271 272 270 263 254
336 318 294 285 284 282 279 275 271 268 264 257 251 249 249 250 250 249 245 241 239 241 242 243 244 246 247 248 251 251 249 246 246 245 242 237 235 235 237 240 242 244 246 248 250 252 254 256 256 256 256 254 253 255 257 255 242 226 219 230 248 255 260 259 252 246 248 249 249 252 256 258 261 264 265 266 270 271 268 266 266 266 262 257 250
350 350 330 300 284 279 277 274 269 267 267 264 259 256 254 252 252 251 248 243 241 241 242 240 241 244 246 248 250 250 246 242 242 242 240 236 232 231 233 237 239 240 243 245 248 252 255 257 258 259 258 255 251 251 251 242 226 215 216 232 247 256 261 260 252 246 244 244 245 251 257 259 261 262 262 265 268 265 259 257 257 254 251 248 245
347 355 351 329 297 280 275 271 266 263 262 259 255 253 255 257 257 255 251 248 244 241 237 236 237 240 243 246 248 247 242 237 236 237 236 233 231 229 231 235 236 236 238 240 244 250 253 255 256 256 254 246 235 230 226 219 218 228 240 242 245 253 258 256 250 241 238 243 249 251 251 251 250 247 246 250 254 255 254 251 245 241 240 241 244
348 354 354 350 331 302 284 275 268 263 259 256 251 246 245 248 249 249 248 248 246 242 239 237 237 239 239 240 242 241 236 231 230 230 229 228 227 226 227 230 231 231 232 235 239 242 246 248 248 247 247 246 241 236 231 225 228 240 247 245 247 254 257 255 247 238 238 247 251 245 236 232 233 236 241 247 252 255 254 249 243 239 240 242 248
353 360 356 353 346 330 308 290 278 269 261 254 249 244 240 239 239 238 240 242 244 244 242 239 236 233 230 229 230 229 226 223 222 222 222 222 221 221 222 224 225 223 222 224 225 225 230 237 239 239 246 255 256 249 242 240 242 245 245 247 253 262 265 257 246 238 238 242 239 230 222 222 228 234 240 245 249 252 252 249 246 246 248 253 257
350 359 356 352 348 340 330 315 296 281 267 252 243 237 232 231 231 230 228 229 233 235 233 226 218 214 213 212 213 214 214 213 214 214 214 214 214 214 215 216 215 212 208 208 209 208 213 224 231 234 237 242 243 240 241 244 243 242 242 242 249 259 263 255 243 238 239 240 235 229 228 229 232 235 239 243 247 248 249 250 251 252 254 255 253
353 355 345 345 354 350 342 337 323 298 272 254 243 233 223 218 216 212 208 208 213 216 216 210 205 204 204 201 200 200 200 200 201 203 204 204 203 204 203 201 197 193 189 188 192 195 198 205 213 217 216 216 220 226 230 226 217 214 218 220 226 236 241 239 235 234 234 235 235 235 236 236 237 238 241 243 246 248 249 251 253 253 252 249 244
357 353 337 335 349 359 355 349 338 317 277 248 242 240 235 225 211 201 195 190 187 188 191 192 194 198 200 198 195 192 189 187 187 187 186 183 181 181 182 181 179 175 170 166 171 183 192 194 195 195 192 189 187 187 188 185 179 177 180 187 196 206 212 210 211 220 228 235 242 244 244 245 245 246 248 251 253 253 253 252 252 252 252 249 246
2 360 339 332 341 358 17 26 22 15 29 132 161 182 211 226 220 207 197 186 176 170 168 168 172 181 188 189 186 183 180 176 169 165 165 163 161 160 162 163 162 158 151 145 146 158 171 171 164 157 151 147 146 148 152 158 162 162 163 169 176 184 191 196 201 211 225 236 246 252 255 259 262 263 265 266 264 262 259 257 256 255 253 251 250
304 350 340 338 344 3 40 58 69 81 86 88 98 103 105 116 133 140 154 168 166 161 159 156 150 151 163 170 169 165 164 160 150 145 147 150 150 149 147 142 137 131 124 118 119 128 137 137 131 126 125 124 127 132 136 140 147 153 158 162 166 170 179 187 193 202 214 223 232 241 250 260 267 270 268 263 260 259 258 258 258 256 254 253 253
227 212 347 342 341 6 62 77 86 93 95 97 103 103 101 105 113 120 129 140 143 143 150 147 131 124 133 143 144 143 145 143 137 133 134 136 135 133 129 123 118 113 109 110 115 123 127 125 121 120 122 123 124 128 132 138 149 159 168 172 173 171 169 169 172 178 186 194 205 219 235 250 259 258 252 247 246 248 249 251 252 253 253 253 254
222 185 151 145 171 167 119 106 100 97 97 100 104 106 107 108 110 111 115 118 122 126 132 131 123 119 123 128 128 127 129 129 127 127 126 126 125 123 119 115 113 112 112 117 124 128 130 129 127 128 132 136 139 144 151 157 163 169 174 176 176 172 169 171 176 181 185 191 199 212 226 238 245 248 251 253 255 256 258 258 260 261 262 263 265